Regional Weather Roundup
Issued by NWS

Home | Current Version | Previous Version | Text Only | Print | Product List | Glossary On
Versions: 1 2 3 4 5 6 7 8 9 10 11 12 13 14 15 16 17 18 19 20 21 22 23 24 25 26 27 28 29 30 31 32 33 34 35 36 37 38 39 40 41 42 43 44 45 46 47 48 49 50
000
ASUS43 KMPX 050710
RWRMN
WEATHER ROUNDUP FOR MINNESOTA
NATIONAL WEATHER SERVICE TWIN CITIES/CHANHASSEN MN
200 AM CDT THU MAY 05 2016


NOTE: "FAIR" INDICATES FEW OR NO CLOUDS BELOW 12,000 FEET WITH NO
SIGNIFICANT WEATHER AND/OR OBSTRUCTIONS TO VISIBILITY. N/A MEANS
CURRENT SKY AND/OR WEATHER CONDITIONS ARE NOT AVAILABLE.

MNZ060>063-068>070-050800-
   Twin Cities Metro

CITY           SKY/WX    TMP DP  RH WIND       PRES   REMARKS
TWIN CITIES    CLEAR     50  27  40 SE8       30.01R
ST PAUL        CLEAR     48  34  58 CALM      30.02R
CRYSTAL        CLEAR     41  31  67 CALM      30.00R
BLAINE         CLEAR     41  36  81 CALM      30.01R
EDEN PRAIRIE   CLEAR     46  33  60 E3        30.00R
SOUTH ST PAUL  CLEAR     45  30  55 CALM      30.01R
LAKE ELMO      FAIR      37  34  87 CALM      30.02R
$$
MNZ001>005-007-008-013>017-022>024-027-028-050800-
   Northwest Minnesota

CITY           SKY/WX    TMP DP  RH WIND       PRES   REMARKS
BEMIDJI        CLEAR     41  29  63 CALM      29.96S
HALLOCK        CLEAR     52  27  37 S10       29.85S
ROSEAU         PTCLDY    50  34  53 S9        29.89S
WARROAD        CLOUDY    50  30  46 S7        29.91S
THIEF RVR FALL PTCLDY    52  27  37 S10       29.91F
CROOKSTON      CLEAR     55  28  35 S10       29.90F
FOSSTON        CLEAR     48  28  46 S7        29.93F
DETROIT LAKES  CLEAR     48  37  66 SE6       29.97R
MOORHEAD       CLEAR     52  30  43 S7        29.95S
PARK RAPIDS    CLEAR     45  29  53 CALM      29.97S
MAHNOMEN       FAIR      47  32  55 SE7       29.94S
$$
MNZ006-009>011-018-025>026-050800-
   North Central Minnesota

CITY           SKY/WX    TMP DP  RH WIND       PRES   REMARKS
BAUDETTE       PTCLDY    47  25  42 S8        29.93F
FLAG ISLAND    MOCLDY    46  39  76 S12       29.88F
INTL FALLS     CLOUDY    45  36  70 SE3       29.94S
WASKISH        MOCLDY    46  30  53 SE3       29.95S
BIG FORK       MOCLDY    39  32  75 CALM      29.98R
LONGVILLE      PTCLDY    37  34  87 CALM      29.97S
GRAND RAPIDS   PTCLDY    39  23  52 S7        29.98F
CRANE LAKE     MOCLDY    36  30  80 CALM      29.98S
ORR            CLOUDY    45  19  36 CALM      29.94F
COOK           CLOUDY    37  30  75 CALM      29.97F
WALKER         PTSUNNY   44  28  54 CALM      29.97S
$$
MNZ012-019>021-037-050800-
   Northeast Minnesota

CITY           SKY/WX    TMP DP  RH WIND       PRES   REMARKS
DULUTH         CLEAR     37  27  67 CALM      30.00S
ELY            PTCLDY    32  27  80 SE3       29.98F
HIBBING        CLOUDY    33  28  81 CALM      30.00R
EVELETH        CLOUDY    34  30  86 CALM      30.00F
DULUTH HARBOR  CLEAR     37  36  93 E5        30.03S
TWO HARBORS    CLEAR     34  28  80 N3        29.99S
SILVER BAY     CLEAR     30  27  86 CALM      30.00S
GRAND MARAIS     N/A     32  28  85 CALM      30.02F
G MARAIS ARPRT PTCLDY    28  25  86 CALM      30.00S
$$
MNZ029>031-032-039>041-046>048-054>057-064-050800-
   West Central Minnesota

CITY           SKY/WX    TMP DP  RH WIND       PRES   REMARKS
FERGUS FALLS   CLEAR     52  36  54 S6        29.94S
WHEATON        CLEAR     54  34  47 S8        29.99F
MORRIS         CLEAR     45  34  65 S5        29.97F
ALEXANDRIA     CLEAR     46  33  60 SE5       29.99F
ELBOW LAKE     FAIR      49  36  58 SE6       29.98S
WADENA         CLEAR     43  28  56 SE5       29.98R
GLENWOOD       CLEAR     48  30  49 SE5       29.99F
APPLETON       CLEAR     46  37  71 SW3       29.99F
BENSON         CLEAR     43  34  70 CALM      29.99S
ORTONVILLE     CLEAR     48  34  57 CALM      29.99S
MADISON        CLEAR     46  34  61 SW3       30.00S
WILLMAR        FAIR      45  34  65 CALM      30.01S
$$
MNZ033>034-036-042>043-049>051-058-059-050800-
   Central Minnesota

CITY           SKY/WX    TMP DP  RH WIND       PRES   REMARKS
ST CLOUD       CLEAR     39  31  72 CALM      30.00R
SAUK CENTRE    FAIR      40  33  77 CALM      29.99S
PAYNESVILLE    CLEAR     40  30  69 CALM      30.01S
AITKIN         PTCLDY    37  30  75 CALM      29.97S
PINE RIVER     CLEAR     37  32  81 CALM      30.01S
BRAINERD       CLEAR     38  29  70 S3        29.99S
STAPLES        CLEAR     39  30  70 CALM      29.99R
LONG PRAIRIE   FAIR      41  32  70 CALM      30.00S
LITTLE FALLS   CLEAR     37  32  81 CALM      30.00S
LITCHFIELD     CLEAR     46  36  66 CALM      30.01R
BUFFALO        CLEAR     41  32  69 CALM      30.01R
MAPLE LAKE     CLEAR     38  35  88 CALM      30.01R
HUTCHINSON     CLEAR     42  33  70 CALM      30.01S
$$
MNZ037-044-045-052-053-050800-
   East Central Minnesota

CITY           SKY/WX    TMP DP  RH WIND       PRES   REMARKS
PRINCETON      CLEAR     39  30  70 CALM      30.00R
MORA           CLEAR     36  30  80 CALM      30.02R
CAMBRIDGE      CLEAR     41  28  60 CALM      29.99S
RUSH CITY      CLEAR     36  30  80 CALM      30.02R
MOOSE LAKE     CLEAR     36  30  80 CALM      30.00R
HINCKLEY       CLOUDY    34  32  93 CALM      30.01R
CLOQUET        CLEAR     34  28  80 CALM      30.00S
MCGREGOR       CLEAR     41  28  60 CALM      30.00S
$$
MNZ071>073-080-081-089-090-097-098-050800-
   Southwest Minnesota

CITY           SKY/WX    TMP DP  RH WIND       PRES   REMARKS
MONTEVIDEO     CLEAR     48  28  46 W5        30.01F
GRANITE FALLS  CLEAR     44  32  62 SW5       30.02S
CANBY          CLEAR     47  37  68 CALM      30.02S
MARSHALL       CLEAR     46  32  58 SW5       30.02S
REDWOOD FALLS  CLEAR     48  31  51 CALM      30.00S
OLIVIA         CLEAR     43  28  56 CALM      29.99S
PIPESTONE      CLEAR     45  36  70 CALM      30.02S
WINDOM         CLEAR     43  34  70 CALM      30.02S
WORTHINGTON    CLEAR     46  35  65 NW5       30.03S
JACKSON        CLEAR     46  32  57 CALM      30.02S
TRACY          CLEAR     49  34  56 W6        30.02S
SLAYTON        CLEAR     45  33  64 W7        30.03S
$$
MNZ065>067-074>077-082>085-091>093-050800-
   South Central Minnesota

CITY           SKY/WX    TMP DP  RH WIND       PRES   REMARKS
MANKATO        CLEAR     46  27  46 CALM      30.00R
NEW ULM        CLEAR     45  30  57 W2        30.00S
ST JAMES       CLEAR     39  34  81 CALM      30.02S
FAIRMONT       CLEAR     48  30  49 W3        30.00S
GLENCOE        CLEAR     44  35  70 W3        30.00R
FARIBAULT      CLEAR     37  34  87 E2        30.00S
OWATONNA       CLEAR     43  27  52 CALM      30.00S
WASECA         CLEAR     41  30  65 CALM      30.01S
ALBERT LEA     CLEAR     45  27  49 E3        30.00S
$$
MNZ078>079-086>088-094>096-050800-
   Southeast Minnesota

CITY           SKY/WX    TMP DP  RH WIND       PRES   REMARKS
ROCHESTER      CLEAR     46  23  40 E6        30.00S
RED WING       CLEAR     39  30  70 CALM      30.00S
STANTON        CLEAR     37  30  74 CALM      30.00R
DODGE CENTER   CLEAR     39  25  56 E6        30.00F
WINONA         CLEAR     41  32  70 CALM      30.01S
AUSTIN         CLEAR     43  28  56 CALM      30.00S
PRESTON        CLEAR     42  24  49 NE3       30.00S
$$
ABBREVIATIONS USED IN REMARKS
   TC - TEMPERATURES IN CELSIUS
  WCI - WIND CHILL INDEX
   HX - HEAT INDEX
  VSB - VISIBILITY
$$




USA.gov is the U.S. government's official web portal to all federal, state and local government web resources and services.